Flag for Pakistan Weather past 2 weeks in Islamabad, Pakistan

Now
45 °F

Passing clouds.


Feels Like: 45 °F
Forecast: 44 / 73 °F
Wind: No wind

Location: Islamabad Airport

Current Time: Dec 20, 2014 at 10:19:23 PM

Latest Report: Dec 20, 2014 at 10:00 PM


Visibility: 1 mi

Pressure: 30.07 "Hg

Humidity: 87%

Dew point: 41 °F

Location of IslamabadLocation

Historic Weather in Islamabad — Graph

°F

Islamabad temperature yesterday

Maximum temperature yesterday: 64 °F (at 2:00 PM)
Minimum temperature yesterday: 37 °F (at 5:00 AM)
Average temperature yesterday: 50 °F

Past Weeks' High & Low Weather Summary

 TemperatureHumidityPressure
High73 °F (Dec 6, 1:00 PM)100% (Dec 19, 4:00 AM)30.27 "Hg (Dec 19, 4:00 AM)
Low37 °F (Dec 18, 7:00 AM)25% (Dec 6, 2:00 PM)29.98 "Hg (Dec 7, 3:00 PM)
Average53 °F68%30.11 "Hg
* Reported Dec 5 9:00 PM — Dec 20 9:00 PM, Islamabad, Weather by CustomWeather, © 2014

Note: Actual official high and low records may vary slightly from our data, if they occured in-between our weather recording intervals... More about our weather records

Advertising

Islamabad weather history for previous 24 hours

 ConditionsComfort  
Time TempWeatherWind HumidityBarometerVisibility
9:00 PM
Dec 20
46 °FPassing clouds.No wind82%30.07 "Hg1 mi
8:00 PM48 °FPassing clouds.No wind82%30.04 "Hg1 mi
7:00 PM50 °FPassing clouds.No wind76%30.04 "Hg1 mi
6:00 PM54 °FPassing clouds.7 mph77%30.04 "Hg1 mi
5:00 PM55 °FScattered clouds.7 mph72%30.01 "Hg1 mi
4:00 PM59 °FScattered clouds.7 mph68%30.04 "Hg1 mi
3:00 PM61 °FScattered clouds.7 mph63%30.07 "Hg1 mi
2:00 PM63 °FScattered clouds.7 mph59%30.07 "Hg1 mi
1:00 PM59 °FScattered clouds.7 mph59%30.09 "Hg1 mi
12:00 PM55 °FScattered clouds.5 mph67%30.15 "Hg1 mi
11:00 AM52 °FScattered clouds.No wind82%30.18 "Hg1 mi
10:00 AM48 °FFog.No wind82%30.18 "Hg1 mi
9:00 AM41 °FFog.No wind93%30.18 "Hg1 mi
8:00 AM37 °FFog.No wind93%30.18 "Hg1 mi
7:00 AM37 °FFog.No wind93%30.18 "Hg1 mi
6:00 AM37 °FFog.No wind93%30.18 "Hg1 mi
5:00 AM39 °FFog.No wind93%30.18 "Hg1 mi
4:00 AM41 °FFog.No wind81%30.18 "Hg1 mi
3:00 AM41 °FFog.No wind87%30.18 "Hg1 mi
2:00 AM41 °FFog.No wind93%30.21 "Hg1 mi
1:00 AM43 °FFog.No wind87%30.21 "Hg1 mi
12:00 AM45 °FClear.No wind87%30.21 "Hg1 mi
11:00 PM
Dec 19
46 °FClear.No wind82%30.24 "Hg1 mi
10:00 PM48 °FClear.No wind76%30.24 "Hg1 mi
Weather by CustomWeather, © 2014

See weather overviewHow to use our weather pages